UND ROADS 1

Satellite information

Favourite Embed

Satellite Type and Status

PAYLOADIN ORBIT

Key statistics

Satellite UND ROADS 1 at a glance.

Uptime

174

Days in orbit

Revolutions

≈ 15.2

Per day

Orbit

SSO

Sun Synchronous Orbit

Inclination

97.5

Latest

Satellite identification and parameters

Extended collection of information and parameters for UND ROADS 1.

Object identification

Identified? True

Debris? False

Object name: UND ROADS 1

International designator: 2025-135H

Object number (NORAD): 64535

Object ID (CCSDS): 64535

Country: UNITED STATES OF AMERICA (US)

Current information (Y/N): Y

RCS size: SMALL

Orbital parameters

Period: 94.758 minutes

Inclination: 97.4537 deg

SMA: 6884.989 km

Apoapsis: 511.027 km

Periapsis: 502.682 km

RAAN: 99.393 deg

Eccentricy: 0.00060603

Argument of periapsis: 103.373 deg

Mean anomaly: 256.8181 deg

Mean motion: 15.1966493 rev/day

Mean motion (dot): 0.0000842 rev/day2

B* drag term: 0.00039760865 1/REarth

Two-line elements (TLE)

Creation date: Dec. 14, 2025, 3:07 a.m.

Reference frame: TEME

Reference center: EARTH

Epoch: Dec. 13, 2025, 1:44 p.m. UTC

TLE line 0: 0 UND ROADS 1

TLE line 1: 1 64535U 25135H 25347.57253200 .00008420 00000-0 39761-3 0 9997

TLE line 2: 2 64535 97.4537 99.3930 0006060 103.3730 256.8181 15.19664930 26645

Live tracking on map

Real-time ground track for satellite UND ROADS 1.

In-orbit conjunctions

There are no conjunctions computed for UND ROADS 1, at the moment. Check back to stay up to date, as we update our databases every day.

Go to all conjunctions

Associated space launch

Dedicated rideshare flight to a sun-synchronous orbit with dozens of small microsatellites and nanosatellites for commercial and government customers.

UND ROADS 1 was lifted into orbit during the mission ‘Falcon 9 Block 5 | Transporter 14 (Dedicated SSO Rideshare)’, on board a Falcon 9 space rocket.

The launch took place on June 23, 2025, 9:25 p.m. from Space Launch Complex 4E.

For more information about the launch, click the button.

Launch to space Falcon 9 Block 5 | Transporter 14 (Dedicated SSO Rideshare)
Falcon 9 Block 5 | Transporter 14 (Dedicated SSO Rideshare)

Agency: SpaceX

Status: Launch Successful

Launch date: June 23, 2025, 9:25 p.m. UTC

Rocket: Falcon 9

Launch pad: Space Launch Complex 4E

Location: Vandenberg SFB, CA, USA

...

Latest news about this satellite

News about space launch
The Exploration Company still studying Mission Possible reentry

The Exploration Company is still studying what happened in the final phases of a test flight three months ago that resulted in the loss of the spacecraft. The post The Exploration Company still studying Mission Possible reentry appeared first on SpaceNew...

News about space launch
A European spacecraft company flies its vehicle, then loses it after reentry

"This partial success reflects both ambition and the inherent risks of innovation."

News about space launch
The Exploration Company claims partial success of Mission Possible reentry spacecraft

The Exploration Company said it achieved “partial success” on a test flight of a reentry capsule but lost the spacecraft before it splashed down. The post The Exploration Company claims partial success of Mission Possible reentry spacecraft appeared firs...


Newsletter sign-up

Weekly statistics, charts and insights to help you stay on top of the space industry.